Location: Gouy
(50.0008°N, 3.2556°E)
Time: 19:30:10
(UTC+00:00)

Resurs 1-4 Rocket - Pass Details

Date: 23 May 2024
Orbit: 798 x 813 km, 98.7° (Epoch: 16 June)

Event Time Altitude Azimuth Distance (km) Brightness Sun altitude
Rises 00:25:40 0° 28° (NNE) 3,318 6.7 -18.8°
Reaches altitude 10° 00:28:52 10° 48° (NE) 2,381 5.3 -18.7°
Maximum altitude 00:32:14 17° 88° (E) 1,926 4.2 -18.5°
Drops below altitude 10° 00:35:36 10° 129° (SE) 2,371 4.3 -18.4°
Enters shadow 00:36:01 - 132° (SE) 2,474 4.4 -18.4°
